Time,TemperatureF,DewpointF,PressureIn,WindDirection,WindDirectionDegrees,WindSpeedMPH,WindSpeedGustMPH,Humidity,HourlyPrecipIn,Conditions,Clouds,dailyrainin,SoftwareType,DateUTC
2013-06-16 00:08:00,76.6,48.0,30.14,NNW,331,0.0,-999.0,37,-99.99,,,0.00,weatherlink.com 1.10,2013-06-16 04:08:00,
2013-06-16 00:23:00,76.4,45.0,30.15,WNW,291,5.0,-999.0,33,-99.99,,,0.00,weatherlink.com 1.10,2013-06-16 04:23:00,
2013-06-16 00:38:00,76.5,44.0,30.15,WNW,285,6.0,-999.0,31,-99.99,,,0.00,weatherlink.com 1.10,2013-06-16 04:38:00,
2013-06-16 00:53:00,76.5,40.0,30.14,WNW,292,6.0,-999.0,27,-99.99,,,0.00,weatherlink.com 1.10,2013-06-16 04:53:00,
2013-06-16 01:08:00,76.5,18.0,30.15,NW,315,1.0,-999.0,11,-99.99,,,0.00,weatherlink.com 1.10,2013-06-16 05:08:00,
2013-06-16 01:23:00,76.5,22.0,30.15,WNW,292,2.0,-999.0,13,-99.99,,,0.00,weatherlink.com 1.10,2013-06-16 05:23:00,
2013-06-16 01:38:00,76.3,-99.9,30.14,West,268,0.0,-999.0,0,-99.99,,,0.00,weatherlink.com 1.10,2013-06-16 05:38:00,
2013-06-16 01:53:00,76.1,-99.9,30.14,NW,319,0.0,-999.0,0,-99.99,,,0.00,weatherlink.com 1.10,2013-06-16 05:53:00,
2013-06-16 02:08:00,76.3,-99.9,30.14,WNW,301,1.0,-999.0,0,-99.99,,,0.00,weatherlink.com 1.10,2013-06-16 06:08:00,
2013-06-16 02:23:00,76.2,-99.9,30.14,WNW,282,6.0,-999.0,0,-99.99,,,0.00,weatherlink.com 1.10,2013-06-16 06:23:00,
2013-06-16 02:38:00,76.2,-11.0,30.14,West,280,2.0,-999.0,3,-99.99,,,0.00,weatherlink.com 1.10,2013-06-16 06:38:00,
2013-06-16 02:53:00,75.9,-99.9,30.14,NE,44,0.0,-999.0,0,-99.99,,,0.00,weatherlink.com 1.10,2013-06-16 06:53:00,
2013-06-16 03:08:00,75.9,-5.0,30.14,WNW,290,2.0,-999.0,4,-99.99,,,0.00,weatherlink.com 1.10,2013-06-16 07:08:00,
2013-06-16 03:24:00,75.8,-99.9,30.14,NNW,338,0.0,-999.0,0,-99.99,,,0.00,weatherlink.com 1.10,2013-06-16 07:24:00,
2013-06-16 03:39:00,75.8,-19.0,30.14,North,360,2.0,-999.0,2,-99.99,,,0.00,weatherlink.com 1.10,2013-06-16 07:39:00,
2013-06-16 03:54:00,75.8,-99.9,30.14,NW,316,0.0,-999.0,0,-99.99,,,0.00,weatherlink.com 1.10,2013-06-16 07:54:00,
2013-06-16 04:09:00,75.8,-99.9,30.13,NW,319,0.0,-999.0,0,-99.99,,,0.00,weatherlink.com 1.10,2013-06-16 08:09:00,
2013-06-16 04:24:00,75.9,-19.0,30.13,NNE,13,0.0,-999.0,2,-99.99,,,0.00,weatherlink.com 1.10,2013-06-16 08:24:00,
2013-06-16 04:39:00,75.8,-5.0,30.14,North,5,5.0,-999.0,4,-99.99,,,0.00,weatherlink.com 1.10,2013-06-16 08:39:00,
2013-06-16 04:54:00,75.7,-99.9,30.14,WNW,288,1.0,-999.0,0,-99.99,,,0.00,weatherlink.com 1.10,2013-06-16 08:54:00,
2013-06-16 05:09:00,75.8,4.0,30.14,WNW,286,4.0,-999.0,6,-99.99,,,0.00,weatherlink.com 1.10,2013-06-16 09:09:00,
2013-06-16 05:24:00,75.8,-99.9,30.14,NNW,331,0.0,-999.0,0,-99.99,,,0.00,weatherlink.com 1.10,2013-06-16 09:24:00,
2013-06-16 05:39:00,75.6,-99.9,30.14,NNW,339,4.0,-999.0,0,-99.99,,,0.00,weatherlink.com 1.10,2013-06-16 09:39:00,
2013-06-16 05:54:00,75.7,-99.9,30.15,NW,321,0.0,-999.0,0,-99.99,,,0.00,weatherlink.com 1.10,2013-06-16 09:54:00,
2013-06-16 06:09:00,75.7,-99.9,30.15,North,360,0.0,-999.0,0,-99.99,,,0.00,weatherlink.com 1.10,2013-06-16 10:09:00,
2013-06-16 06:24:00,75.7,-99.9,30.16,NNW,333,1.0,-999.0,0,-99.99,,,0.00,weatherlink.com 1.10,2013-06-16 10:24:00,
2013-06-16 06:39:00,75.9,-99.9,30.15,WNW,288,1.0,-999.0,0,-99.99,,,0.00,weatherlink.com 1.10,2013-06-16 10:39:00,
2013-06-16 06:55:00,76.6,11.0,30.16,NNW,346,2.0,-999.0,8,-99.99,,,0.00,weatherlink.com 1.10,2013-06-16 10:55:00,
2013-06-16 07:10:00,77.1,16.0,30.16,NNE,22,1.0,-999.0,10,-99.99,,,0.00,weatherlink.com 1.10,2013-06-16 11:10:00,
2013-06-16 07:25:00,78.0,-18.0,30.17,NW,313,0.0,-999.0,2,-99.99,,,0.00,weatherlink.com 1.10,2013-06-16 11:25:00,
2013-06-16 07:40:00,78.4,25.0,30.17,NNW,330,0.0,-999.0,14,-99.99,,,0.00,weatherlink.com 1.10,2013-06-16 11:40:00,
2013-06-16 07:55:00,79.7,46.0,30.17,NNW,339,0.0,-999.0,30,-99.99,,,0.00,weatherlink.com 1.10,2013-06-16 11:55:00,
2013-06-16 08:10:00,78.7,44.0,30.18,North,5,0.0,-999.0,29,-99.99,,,0.00,weatherlink.com 1.10,2013-06-16 12:10:00,
2013-06-16 08:25:00,78.2,40.0,30.18,NNE,17,0.0,-999.0,25,-99.99,,,0.00,weatherlink.com 1.10,2013-06-16 12:25:00,
2013-06-16 08:40:00,79.0,37.0,30.18,North,5,0.0,-999.0,22,-99.99,,,0.00,weatherlink.com 1.10,2013-06-16 12:40:00,
2013-06-16 08:55:00,79.4,41.0,30.18,North,360,0.0,-999.0,25,-99.99,,,0.00,weatherlink.com 1.10,2013-06-16 12:55:00,
2013-06-16 09:10:00,80.5,50.0,30.18,NNW,346,0.0,-999.0,35,-99.99,,,0.00,weatherlink.com 1.10,2013-06-16 13:10:00,
2013-06-16 09:25:00,81.9,53.0,30.18,NNW,348,0.0,-999.0,37,-99.99,,,0.00,weatherlink.com 1.10,2013-06-16 13:25:00,
2013-06-16 09:40:00,83.4,56.0,30.19,NNE,20,1.0,-999.0,39,-99.99,,,0.00,weatherlink.com 1.10,2013-06-16 13:40:00,
2013-06-16 09:55:00,84.4,58.0,30.19,WSW,247,0.0,-999.0,40,-99.99,,,0.00,weatherlink.com 1.10,2013-06-16 13:55:00,
2013-06-16 10:10:00,85.6,59.0,30.19,North,360,0.0,-999.0,41,-99.99,,,0.00,weatherlink.com 1.10,2013-06-16 14:10:00,
2013-06-16 10:26:00,85.2,60.0,30.19,NW,305,1.0,-999.0,42,-99.99,,,0.00,weatherlink.com 1.10,2013-06-16 14:26:00,
2013-06-16 10:41:00,85.8,60.0,30.18,NW,308,1.0,-999.0,42,-99.99,,,0.00,weatherlink.com 1.10,2013-06-16 14:41:00,
2013-06-16 10:56:00,84.1,59.0,30.18,West,271,7.0,-999.0,43,-99.99,,,0.00,weatherlink.com 1.10,2013-06-16 14:56:00,
2013-06-16 11:11:00,85.2,60.0,30.18,NW,314,4.0,-999.0,42,-99.99,,,0.00,weatherlink.com 1.10,2013-06-16 15:11:00,
2013-06-16 11:26:00,85.5,60.0,30.18,NW,321,4.0,-999.0,42,-99.99,,,0.00,weatherlink.com 1.10,2013-06-16 15:26:00,
2013-06-16 11:41:00,85.9,61.0,30.18,NNW,327,2.0,-999.0,43,-99.99,,,0.00,weatherlink.com 1.10,2013-06-16 15:41:00,
2013-06-16 11:56:00,85.8,61.0,30.17,WNW,303,3.0,-999.0,43,-99.99,,,0.00,weatherlink.com 1.10,2013-06-16 15:56:00,
2013-06-16 12:11:00,85.4,60.0,30.17,NNW,335,3.0,-999.0,43,-99.99,,,0.00,weatherlink.com 1.10,2013-06-16 16:11:00,
2013-06-16 12:26:00,85.6,61.0,30.17,WNW,298,5.0,-999.0,43,-99.99,,,0.00,weatherlink.com 1.10,2013-06-16 16:26:00,
2013-06-16 12:41:00,86.1,61.0,30.16,WNW,295,3.0,-999.0,43,-99.99,,,0.00,weatherlink.com 1.10,2013-06-16 16:41:00,
2013-06-16 12:56:00,86.1,61.0,30.16,NW,324,2.0,-999.0,43,-99.99,,,0.00,weatherlink.com 1.10,2013-06-16 16:56:00,
2013-06-16 13:11:00,85.9,62.0,30.16,WNW,284,1.0,-999.0,44,-99.99,,,0.00,weatherlink.com 1.10,2013-06-16 17:11:00,
2013-06-16 13:26:00,85.7,61.0,30.15,NW,324,0.0,-999.0,43,-99.99,,,0.00,weatherlink.com 1.10,2013-06-16 17:26:00,
2013-06-16 13:42:00,86.2,62.0,30.15,WNW,295,1.0,-999.0,44,-99.99,,,0.00,weatherlink.com 1.10,2013-06-16 17:42:00,
2013-06-16 13:57:00,85.4,61.0,30.14,WNW,290,5.0,-999.0,44,-99.99,,,0.00,weatherlink.com 1.10,2013-06-16 17:57:00,
2013-06-16 14:12:00,85.0,61.0,30.14,NW,309,6.0,-999.0,44,-99.99,,,0.00,weatherlink.com 1.10,2013-06-16 18:12:00,
2013-06-16 14:27:00,85.7,61.0,30.13,WNW,286,4.0,-999.0,44,-99.99,,,0.00,weatherlink.com 1.10,2013-06-16 18:27:00,
2013-06-16 14:42:00,84.8,61.0,30.13,NW,323,1.0,-999.0,44,-99.99,,,0.00,weatherlink.com 1.10,2013-06-16 18:42:00,
2013-06-16 14:57:00,85.1,60.0,30.13,NNW,327,0.0,-999.0,43,-99.99,,,0.00,weatherlink.com 1.10,2013-06-16 18:57:00,
2013-06-16 15:12:00,84.7,60.0,30.13,North,360,0.0,-999.0,44,-99.99,,,0.00,weatherlink.com 1.10,2013-06-16 19:12:00,
2013-06-16 15:27:00,83.5,60.0,30.12,NNW,343,0.0,-999.0,45,-99.99,,,0.00,weatherlink.com 1.10,2013-06-16 19:27:00,
2013-06-16 15:42:00,84.7,60.0,30.12,NW,318,0.0,-999.0,44,-99.99,,,0.00,weatherlink.com 1.10,2013-06-16 19:42:00,
2013-06-16 15:57:00,85.4,60.0,30.11,NW,323,0.0,-999.0,43,-99.99,,,0.00,weatherlink.com 1.10,2013-06-16 19:57:00,
2013-06-16 16:12:00,85.6,61.0,30.11,WNW,282,7.0,-999.0,44,-99.99,,,0.00,weatherlink.com 1.10,2013-06-16 20:12:00,
2013-06-16 16:27:00,83.8,60.0,30.11,NNW,333,0.0,-999.0,45,-99.99,,,0.00,weatherlink.com 1.10,2013-06-16 20:27:00,
2013-06-16 16:42:00,84.2,60.0,30.11,NNW,340,0.0,-999.0,44,-99.99,,,0.00,weatherlink.com 1.10,2013-06-16 20:42:00,
2013-06-16 16:57:00,84.9,61.0,30.11,NW,311,0.0,-999.0,44,-99.99,,,0.00,weatherlink.com 1.10,2013-06-16 20:57:00,
2013-06-16 17:12:00,84.8,61.0,30.10,NW,326,0.0,-999.0,44,-99.99,,,0.00,weatherlink.com 1.10,2013-06-16 21:12:00,
2013-06-16 17:27:00,83.3,60.0,30.10,WNW,290,5.0,-999.0,45,-99.99,,,0.00,weatherlink.com 1.10,2013-06-16 21:27:00,
2013-06-16 17:42:00,83.2,59.0,30.10,NNW,336,1.0,-999.0,44,-99.99,,,0.00,weatherlink.com 1.10,2013-06-16 21:42:00,
2013-06-16 17:57:00,83.8,60.0,30.09,NNW,330,1.0,-999.0,44,-99.99,,,0.00,weatherlink.com 1.10,2013-06-16 21:57:00,
2013-06-16 18:12:00,83.4,59.0,30.09,North,360,1.0,-999.0,44,-99.99,,,0.00,weatherlink.com 1.10,2013-06-16 22:12:00,
2013-06-16 18:27:00,83.3,58.0,30.10,North,355,2.0,-999.0,43,-99.99,,,0.00,weatherlink.com 1.10,2013-06-16 22:27:00,
2013-06-16 18:42:00,82.9,57.0,30.10,NW,314,4.0,-999.0,42,-99.99,,,0.00,weatherlink.com 1.10,2013-06-16 22:42:00,
2013-06-16 18:57:00,82.5,57.0,30.10,North,5,0.0,-999.0,42,-99.99,,,0.00,weatherlink.com 1.10,2013-06-16 22:57:00,
2013-06-16 19:12:00,82.2,56.0,30.10,NE,34,0.0,-999.0,41,-99.99,,,0.00,weatherlink.com 1.10,2013-06-16 23:12:00,
2013-06-16 19:27:00,81.5,53.0,30.10,North,5,0.0,-999.0,37,-99.99,,,0.00,weatherlink.com 1.10,2013-06-16 23:27:00,
2013-06-16 19:43:00,80.3,41.0,30.10,NNW,342,1.0,-999.0,25,-99.99,,,0.00,weatherlink.com 1.10,2013-06-16 23:43:00,
2013-06-16 19:58:00,79.5,-17.0,30.10,NW,317,0.0,-999.0,2,-99.99,,,0.00,weatherlink.com 1.10,2013-06-16 23:58:00,
2013-06-16 20:13:00,78.9,-99.9,30.10,WNW,294,3.0,-999.0,0,-99.99,,,0.00,weatherlink.com 1.10,2013-06-17 00:13:00,
2013-06-16 20:28:00,78.2,-99.9,30.09,North,355,0.0,-999.0,0,-99.99,,,0.00,weatherlink.com 1.10,2013-06-17 00:28:00,
2013-06-16 20:43:00,77.5,-99.9,30.09,North,360,0.0,-999.0,0,-99.99,,,0.00,weatherlink.com 1.10,2013-06-17 00:43:00,
2013-06-16 20:58:00,77.2,-99.9,30.09,NNW,340,1.0,-999.0,0,-99.99,,,0.00,weatherlink.com 1.10,2013-06-17 00:58:00,
2013-06-16 21:13:00,76.9,-99.9,30.09,North,355,1.0,-999.0,0,-99.99,,,0.00,weatherlink.com 1.10,2013-06-17 01:13:00,
2013-06-16 21:28:00,76.6,-99.9,30.09,North,360,2.0,-999.0,0,-99.99,,,0.00,weatherlink.com 1.10,2013-06-17 01:28:00,
2013-06-16 21:43:00,76.6,-99.9,30.10,NNW,346,1.0,-999.0,0,-99.99,,,0.00,weatherlink.com 1.10,2013-06-17 01:43:00,
2013-06-16 21:58:00,76.5,-99.9,30.10,WNW,282,2.0,-999.0,0,-99.99,,,0.00,weatherlink.com 1.10,2013-06-17 01:58:00,
2013-06-16 22:13:00,76.5,-99.9,30.10,NNW,346,0.0,-999.0,0,-99.99,,,0.00,weatherlink.com 1.10,2013-06-17 02:13:00,
2013-06-16 22:28:00,76.5,-99.9,30.11,NNW,337,2.0,-999.0,0,-99.99,,,0.00,weatherlink.com 1.10,2013-06-17 02:28:00,
2013-06-16 22:43:00,76.6,-99.9,30.10,NW,309,0.0,-999.0,0,-99.99,,,0.00,weatherlink.com 1.10,2013-06-17 02:43:00,
2013-06-16 22:58:00,76.6,-99.9,30.11,WNW,286,0.0,-999.0,0,-99.99,,,0.00,weatherlink.com 1.10,2013-06-17 02:58:00,
2013-06-16 23:14:00,76.6,-99.9,30.11,NNW,334,2.0,-999.0,0,-99.99,,,0.00,weatherlink.com 1.10,2013-06-17 03:14:00,
2013-06-16 23:29:00,76.7,-99.9,30.11,NNW,333,2.0,-999.0,0,-99.99,,,0.00,weatherlink.com 1.10,2013-06-17 03:29:00,
2013-06-16 23:44:00,76.8,-99.9,30.11,NNE,16,0.0,-999.0,0,-99.99,,,0.00,weatherlink.com 1.10,2013-06-17 03:44:00,
2013-06-16 23:59:00,76.9,-99.9,30.11,NNW,338,4.0,-999.0,0,-99.99,,,0.00,weatherlink.com 1.10,2013-06-17 03:59:00,